Destin, Florida, United States (32540)
Lat: 30.39N, Lon: 86.5W
Wx Zone: FLZ006
Local Info
Past Weather Observations for Wednesday, July 1, 2015

NOTE: This archive is for the closest National Weather Service station to Destin. Information may differ from the station used for current weather conditions.

Click here for Long-term Archive

Time Weather Temperature Dewpoint Humidity Pressure Winds Precip Visibility
23:53
Clear
77°F / 25°C 72°F / 22°C 83% 30.06 in
(1018 mb)
Calm - 10SM
22:53
Clear
81°F / 27°C 70°F / 21°C 70% 30.09 in
(1019 mb)
WNW 4.6 mph
(WNW 7 kph)
- 10SM
21:53
Clear
81°F / 27°C 70°F / 21°C 70% 30.12 in
(1020 mb)
SSW 3.5 mph
(SSW 6 kph)
- 10SM
20:53
Clear
82°F / 28°C 72°F / 22°C 70% 30.09 in
(1019 mb)
NW 3.5 mph
(NW 6 kph)
- 10SM
18:53
Clear
82°F / 28°C 75°F / 24°C 79% 30.09 in
(1019 mb)
W 8.1 mph
(W 13 kph)
- 10SM
17:53
Clear
84°F / 29°C 75°F / 24°C 74% 30.06 in
(1018 mb)
Variable 5.8 mph
(Variable 9 kph)
- 10SM
16:53
Clear
88°F / 31°C 75°F / 24°C 66% 30.06 in
(1018 mb)
SSW 9.2 mph
(SSW 15 kph)
- 10SM
15:53
Clear
86°F / 30°C 75°F / 24°C 70% 30.06 in
(1018 mb)
SSW 9.2 mph
(SSW 15 kph)
- 10SM
14:53
Clear
88°F / 31°C 75°F / 24°C 66% 30.06 in
(1018 mb)
SSW 10.4 mph
(SSW 17 kph)
- 10SM
13:53
Partly Cloudy
88°F / 31°C 73°F / 23°C 62% 30.09 in
(1019 mb)
SW 6.9 mph
(SW 11 kph)
- 10SM
12:53
Clear
86°F / 30°C 77°F / 25°C 75% 30.12 in
(1020 mb)
SSW 10.4 mph
(SSW 17 kph)
- 10SM
11:53
Clear
84°F / 29°C 73°F / 23°C 70% 30.09 in
(1019 mb)
SSE 6.9 mph
(SSE 11 kph)
- 10SM
10:53
Clear
86°F / 30°C 75°F / 24°C 70% 30.15 in
(1021 mb)
SSW 6.9 mph
(SSW 11 kph)
- 10SM
09:53
Clear
84°F / 29°C 73°F / 23°C 70% 30.15 in
(1021 mb)
SW 4.6 mph
(SW 7 kph)
- 10SM
08:53
Partly Cloudy
82°F / 28°C 73°F / 23°C 74% 30.15 in
(1021 mb)
Calm - 10SM
07:53
Partly Cloudy
82°F / 28°C 70°F / 21°C 66% 30.12 in
(1020 mb)
Calm - 10SM
06:53
Clear
82°F / 28°C 72°F / 22°C 70% 30.09 in
(1019 mb)
NE 3.5 mph
(NE 6 kph)
- 10SM
05:53
Clear
79°F / 26°C 73°F / 23°C 84% 30.06 in
(1018 mb)
NNE 3.5 mph
(NNE 6 kph)
- 10SM
04:53
Clear
81°F / 27°C 72°F / 22°C 74% 30.06 in
(1018 mb)
Calm - 10SM
03:53
Clear
81°F / 27°C 77°F / 25°C 89% 30.09 in
(1019 mb)
Calm - 8SM
02:53
Clear
82°F / 28°C 77°F / 25°C 84% 30.09 in
(1019 mb)
Variable 5.8 mph
(Variable 9 kph)
- 8SM
01:53
Partly Cloudy
Hazy
82°F / 28°C 77°F / 25°C 84% 30.06 in
(1018 mb)
SW 5.8 mph
(SW 9 kph)
- 6SM
01:46
Partly Cloudy
82°F / 28°C 77°F / 25°C 84% 30.06 in
(1018 mb)
Variable 5.8 mph
(Variable 9 kph)
- 7SM
01:30
Mostly Cloudy
82°F / 28°C 77°F / 25°C 84% 30.06 in
(1018 mb)
Variable 5.8 mph
(Variable 9 kph)
- 7SM
00:53
Clear
81°F / 27°C 77°F / 25°C 89% 30.09 in
(1019 mb)
SSW 6.9 mph
(SSW 11 kph)
- 8SM
Time Weather Temperature Dewpoint Humidity Pressure Winds Precip Visibility


Weather for websites

WeatherForYou.com, LLC is not responsible for any damages or problems caused by this service. Current weather conditions are obtained from the closest station including government and personal stations which may have varying degrees of accuracy. Weather forecasts are derived from the NOAA NDFD. Like all things, this site belongs to Jesus Christ... He just trusts us to maintain it. If you have any questions or comments email webmaster@weatherforyou.com

Copyright © 2015, WeatherForYou.com LLC. All rights reserved.